Temp
71 64 58 63 64 66 65 61 59 65 70 66 62 63 67 70 66 64 64 64 64 65 67 68 68 68 66 65 64 63 63 62 63 61 62 62 62 61 61 62 67 66 66 66
65 58 69 74 72 67 64 60 58 64 71 66 61 62 66 65 62 65 64 63 63 63 64 66 65 66 64 64 63 62 62 61 60 60 59 59 59 61 64 63 64 64 65 64
61 67 77 72 67 65 59 58 57 59 64 64 60 56 59 64 65 65 65 65 64 64 63 64 65 63 63 63 61 61 61 61 62 62 60 59 58 57 57 58 61 64 67 66
65 72 72 66 66 64 54 65 64 63 56 48 59 44 52 58 60 63 63 62 63 64 64 64 64 60 61 64 63 62 63 61 62 60 59 59 58 57 57 57 57 59 63 65
65 65 66 64 65 67 62 67 62 61 53 48 52 46 49 56 54 56 57 61 62 63 65 62 62 65 63 63 62 63 61 60 61 59 58 59 56 56 57 57 57 57 57 60
66 73 70 67 71 69 68 62 58 51 48 41 50 48 45 50 54 57 61 64 65 63 61 63 63 62 63 62 62 60 60 60 61 60 59 57 56 56 54 55 54 56 56 56
64 65 69 73 64 67 61 48 38 39 38 40 51 47 46 56 61 62 62 63 60 60 59 61 61 61 58 58 60 60 56 56 55 56 55 55 54 54 53 54 54 54 54 54
53 52 65 71 63 56 54 49 38 33 33 40 51 42 48 60 62 64 65 60 60 59 57 59 60 59 57 57 56 56 55 55 55 55 54 54 53 53 52 52 52 51 52 53
52 55 68 70 69 65 56 48 54 44 41 38 43 49 57 59 60 61 59 59 56 55 59 59 57 56 55 55 54 54 54 54 54 54 55 54 54 52 51 52 51 52 52 54
56 49 64 67 68 65 58 60 46 40 34 33 41 43 45 54 56 57 55 54 54 56 56 55 56 54 54 54 53 54 54 55 56 54 52 53 51 51 50 50 50 50 50 52
58 50 55 61 56 54 54 50 48 45 41 33 33 40 52 52 53 54 52 53 50 51 52 54 54 54 54 53 52 53 53 53 52 51 50 49 49 50 49 48 49 50 50 51
56 49 44 54 62 65 59 54 48 35 40 39 37 39 57 54 54 54 53 54 52 52 53 54 52 52 52 51 52 52 51 50 49 49 49 49 48 47 46 47 49 49 48 52
55 45 36 45 52 57 54 58 54 46 41 39 33 39 56 56 54 54 51 50 53 52 52 52 51 51 52 52 52 51 48 48 49 50 48 47 46 45 47 51 50 52 52 52
58 46 44 39 47 52 51 56 57 48 33 40 41 45 50 51 50 51 50 48 49 52 53 51 49 48 50 51 49 48 48 48 48 48 46 45 47 50 50 51 51 49 52 51
52 46 47 51 55 56 55 55 56 50 49 41 46 46 46 48 49 51 49 51 52 52 53 50 49 48 48 47 47 47 48 48 48 49 49 49 50 50 49 50 50 51 51 51
51 45 47 48 56 56 53 56 56 55 54 51 49 45 51 52 51 50 50 51 50 51 51 51 51 50 47 46 46 47 46 46 49 48 48 49 50 50 49 49 50 50 50 50
49 45 42 39 52 51 42 52 55 54 54 51 43 46 49 48 51 48 50 50 50 49 50 50 48 47 46 45 45 43 44 46 48 48 48 49 49 48 48 49 49 48 49 50
47 45 42 39 44 32 50 58 60 54 54 52 51 50 50 49 50 50 49 46 48 48 49 48 47 46 45 44 44 43 44 46 47 47 48 49 48 48 48 48 48 48 48 48
53 46 40 36 35 46 53 55 52 48 46 51 50 50 51 52 49 48 52 50 47 46 47 47 46 45 44 43 44 43 46 46 47 47 47 48 48 47 48 48 48 48 48 48
52 49 43 38 34 33 47 56 59 54 37 53 53 49 48 47 38 42 50 50 48 47 48 46 46 46 43 43 47 46 46 45 46 47 47 48 48 48 48 49 49 49 49 48
43 42 40 36 35 42 53 58 59 40 41 53 54 50 47 44 45 49 48 47 48 47 47 45 44 42 43 47 47 45 45 45 47 47 48 48 49 49 50 49 49 49 48 48
44 39 37 38 34 36 58 56 46 48 48 54 52 52 49 49 49 48 48 46 47 46 46 46 42 43 47 48 45 44 44 47 47 48 48 48 49 50 49 48 47 47 47 46
45 48 43 43 43 52 55 54 54 52 52 52 52 52 51 50 48 47 46 45 46 44 45 44 43 46 47 45 45 44 45 47 47 47 47 48 49 50 49 47 47 46 47 45
51 53 48 48 52 54 56 56 56 55 54 55 53 52 52 49 48 46 47 45 44 44 43 43 44 43 42 46 46 46 47 47 47 46 47 48 49 48 49 48 47 47 46 43
53 52 50 48 52 54 56 57 57 56 56 54 54 54 53 51 48 47 45 44 43 43 42 43 43 40 41 45 46 47 47 47 46 46 47 48 49 49 48 48 48 47 46 41
53 52 46 44 54 53 53 55 57 56 54 54 54 54 52 51 49 47 44 43 43 42 42 41 42 40 43 45 46 47 48 47 45 45 47 47 48 48 48 48 48 46 43 42
MSLP
1010.96 1011.87 1012.58 1012.59 1012.68 1013.15 1013.44 1013.64 1013.57 1013.05 1012.51 1012.25 1012.93 1013.51 1013.82 1014.15 1015.01 1016.03 1016.86 1017.38 1017.77 1018.00 1018.21 1018.01 1018.30 1018.43 1018.75 1018.79 1018.81 1018.83 1018.87 1018.90 1018.66 1018.73 1018.71 1018.59 1018.93 1018.81 1018.78 1018.83 1018.63 1018.80 1018.65 1018.55
1011.90 1012.37 1012.17 1012.22 1012.71 1013.32 1013.66 1014.03 1014.12 1013.54 1012.97 1013.17 1013.91 1014.21 1014.05 1014.76 1015.54 1015.90 1016.64 1017.54 1017.94 1018.23 1018.40 1018.18 1018.33 1018.41 1018.58 1018.52 1018.59 1018.62 1018.90 1019.19 1019.24 1019.24 1019.52 1019.24 1018.75 1018.54 1018.75 1018.68 1018.28 1018.38 1018.32 1018.63
1012.04 1012.16 1012.03 1012.48 1013.16 1013.76 1014.33 1014.61 1014.70 1014.82 1014.33 1014.11 1014.30 1014.85 1014.99 1015.22 1015.59 1016.49 1016.87 1017.04 1017.55 1017.94 1018.30 1018.33 1018.39 1018.39 1018.46 1018.59 1018.81 1019.24 1019.16 1019.09 1018.92 1018.73 1018.78 1018.97 1019.28 1019.11 1018.94 1018.84 1018.66 1018.36 1017.86 1017.94
1012.15 1011.96 1012.42 1012.91 1013.42 1013.90 1014.44 1014.48 1014.68 1015.01 1015.44 1015.68 1015.58 1016.65 1016.11 1016.02 1016.41 1016.85 1017.13 1017.30 1017.79 1018.11 1018.10 1018.16 1018.16 1018.62 1019.03 1018.90 1019.20 1019.13 1018.82 1018.69 1018.64 1018.70 1018.76 1018.69 1018.86 1018.99 1018.33 1018.10 1018.04 1017.95 1017.64 1017.36
1012.63 1012.30 1012.49 1013.00 1013.54 1013.78 1014.41 1014.58 1015.07 1015.46 1016.15 1016.66 1016.76 1017.20 1017.45 1017.40 1017.46 1017.64 1017.83 1017.92 1018.03 1018.03 1018.14 1018.55 1018.50 1018.76 1018.78 1018.77 1018.82 1018.57 1018.58 1018.74 1018.62 1018.70 1018.71 1018.66 1018.57 1018.31 1017.70 1017.67 1017.64 1017.66 1017.53 1017.21
1012.56 1012.14 1012.56 1013.02 1013.47 1013.89 1014.59 1015.34 1015.95 1016.75 1017.41 1018.40 1018.06 1018.04 1018.82 1018.30 1018.10 1017.95 1018.03 1018.21 1018.48 1018.64 1018.70 1018.65 1018.69 1018.64 1018.78 1018.73 1018.71 1018.83 1018.90 1018.77 1018.52 1018.45 1018.33 1018.41 1018.31 1018.03 1017.86 1017.52 1017.48 1017.09 1016.86 1016.79
1013.48 1013.40 1013.20 1013.17 1013.83 1014.29 1015.36 1017.09 1018.28 1019.12 1019.70 1019.72 1018.70 1018.64 1019.07 1018.40 1017.93 1017.88 1018.21 1018.45 1018.98 1018.94 1018.95 1019.00 1018.84 1018.80 1019.05 1019.04 1019.26 1019.37 1019.16 1018.99 1018.74 1018.61 1018.47 1018.42 1018.29 1018.12 1018.12 1017.85 1017.51 1017.07 1016.54 1016.40
1014.66 1014.37 1013.81 1013.72 1014.39 1015.20 1016.22 1017.80 1019.48 1020.78 1021.57 1020.78 1019.39 1019.47 1018.96 1018.24 1017.91 1017.82 1018.23 1018.81 1019.15 1019.21 1019.31 1019.24 1019.07 1019.43 1019.58 1019.68 1019.42 1019.26 1019.25 1019.17 1018.92 1018.72 1018.58 1018.34 1018.16 1017.94 1017.70 1017.38 1017.02 1016.69 1016.37 1015.96
1015.26 1015.15 1014.59 1014.32 1014.45 1015.28 1016.61 1017.94 1018.89 1020.51 1021.71 1021.69 1020.73 1019.79 1018.83 1018.47 1018.35 1018.43 1018.89 1019.25 1019.57 1019.59 1019.61 1019.79 1019.91 1019.99 1020.05 1019.98 1019.97 1019.85 1019.60 1019.34 1019.11 1018.93 1018.54 1018.16 1017.90 1017.67 1017.38 1016.89 1016.46 1015.93 1015.76 1015.58
1015.94 1016.10 1015.57 1015.18 1015.08 1015.60 1016.31 1017.60 1019.29 1021.06 1022.46 1022.69 1021.61 1020.49 1019.62 1019.07 1018.86 1019.35 1019.63 1019.86 1019.97 1020.09 1020.27 1020.42 1020.35 1020.29 1020.27 1020.13 1020.06 1019.92 1019.67 1019.49 1019.07 1018.65 1018.44 1018.13 1017.91 1017.56 1017.19 1016.82 1016.50 1016.18 1015.80 1015.57
1016.42 1017.17 1017.04 1016.31 1016.14 1016.28 1016.86 1017.89 1019.65 1021.15 1022.45 1022.94 1022.73 1020.84 1019.53 1019.11 1019.28 1019.75 1020.24 1020.53 1020.60 1020.78 1020.65 1020.48 1020.46 1020.60 1020.58 1020.51 1020.32 1020.08 1019.76 1019.48 1019.23 1018.92 1018.63 1018.24 1017.92 1017.52 1017.09 1016.67 1016.27 1015.92 1015.48 1015.11
1017.57 1018.28 1018.49 1017.71 1016.64 1016.43 1016.78 1017.81 1019.34 1021.46 1022.50 1022.87 1022.58 1021.00 1019.50 1019.70 1019.75 1020.08 1020.63 1020.50 1020.50 1020.59 1020.66 1020.60 1020.73 1020.97 1020.92 1020.67 1020.33 1020.14 1019.99 1019.84 1019.59 1019.12 1018.59 1018.10 1017.69 1017.26 1016.77 1016.29 1015.87 1015.48 1015.05 1014.68
1017.97 1019.34 1019.68 1018.71 1018.00 1017.28 1017.50 1017.82 1018.68 1020.31 1021.58 1022.25 1022.71 1021.43 1020.27 1020.17 1020.15 1020.37 1020.47 1020.68 1021.03 1020.83 1020.73 1020.77 1020.87 1021.00 1020.93 1020.68 1020.43 1020.33 1020.18 1019.89 1019.38 1018.88 1018.34 1017.76 1017.19 1016.65 1016.11 1015.58 1015.27 1014.88 1014.50 1014.23
1018.23 1019.71 1020.26 1020.29 1019.43 1018.91 1018.46 1018.23 1018.52 1019.73 1021.25 1021.40 1021.33 1020.52 1020.41 1020.36 1020.56 1020.54 1020.76 1020.99 1020.89 1020.64 1020.63 1020.92 1021.11 1021.09 1020.92 1020.67 1020.65 1020.43 1020.16 1019.66 1019.10 1018.53 1017.93 1017.26 1016.64 1015.93 1015.43 1014.97 1014.53 1014.18 1013.82 1013.53
1019.16 1020.34 1020.44 1020.06 1019.48 1018.97 1018.50 1018.20 1018.16 1018.85 1019.16 1020.26 1020.10 1020.35 1020.48 1020.46 1020.63 1020.81 1021.00 1020.85 1020.81 1020.89 1020.94 1021.12 1021.21 1021.11 1021.00 1020.88 1020.64 1020.37 1019.97 1019.33 1018.75 1018.09 1017.39 1016.67 1015.96 1015.37 1014.85 1014.29 1013.83 1013.40 1013.06 1012.75
1019.73 1020.46 1020.64 1020.46 1019.39 1018.88 1018.30 1017.71 1017.61 1017.69 1018.17 1019.01 1019.63 1020.21 1020.28 1020.54 1020.76 1020.98 1020.93 1020.88 1020.86 1020.97 1021.12 1021.24 1021.25 1021.19 1021.04 1020.87 1020.55 1020.18 1019.69 1019.04 1018.33 1017.67 1016.92 1016.13 1015.47 1014.81 1014.15 1013.62 1013.18 1012.74 1012.31 1012.00
1020.28 1021.06 1021.62 1021.29 1020.08 1019.31 1018.26 1017.13 1016.92 1017.40 1017.89 1018.32 1019.32 1019.86 1020.30 1020.42 1020.26 1020.49 1020.67 1020.83 1021.05 1021.20 1021.30 1021.39 1021.37 1021.16 1020.96 1020.79 1020.45 1020.08 1019.40 1018.76 1018.03 1017.29 1016.43 1015.70 1014.93 1014.18 1013.44 1012.86 1012.37 1011.90 1011.58 1011.22
1020.10 1021.18 1021.91 1022.02 1020.94 1020.05 1018.09 1017.00 1016.79 1017.45 1018.25 1018.64 1019.25 1019.84 1020.07 1020.24 1020.32 1020.55 1020.89 1021.07 1021.28 1021.32 1021.36 1021.38 1021.23 1021.06 1020.89 1020.64 1020.21 1019.61 1019.04 1018.40 1017.66 1016.87 1016.07 1015.22 1014.40 1013.60 1012.81 1012.15 1011.56 1011.20 1010.81 1010.49
1019.12 1020.78 1022.10 1022.38 1021.97 1020.23 1018.21 1017.31 1017.34 1017.82 1018.75 1018.91 1019.45 1019.81 1020.03 1020.23 1020.46 1020.77 1020.93 1021.07 1021.17 1021.24 1021.34 1021.34 1021.29 1021.07 1020.80 1020.54 1019.95 1019.24 1018.62 1018.07 1017.35 1016.52 1015.70 1014.80 1013.92 1013.01 1012.14 1011.31 1010.83 1010.37 1010.03 1009.75
1019.52 1020.14 1021.64 1022.69 1022.38 1020.86 1018.55 1017.65 1017.56 1017.98 1018.99 1019.19 1019.34 1019.70 1020.05 1020.42 1021.01 1021.38 1021.05 1021.18 1021.29 1021.30 1021.35 1021.40 1021.23 1020.89 1020.71 1020.26 1019.62 1019.07 1018.43 1017.83 1017.11 1016.28 1015.41 1014.43 1013.37 1012.45 1011.46 1010.66 1010.06 1009.65 1009.36 1009.12
1020.07 1021.02 1021.59 1022.08 1021.83 1020.06 1018.03 1017.72 1017.89 1018.96 1019.30 1019.01 1019.09 1019.47 1019.99 1020.63 1021.01 1021.06 1021.21 1021.40 1021.36 1021.37 1021.37 1021.33 1021.18 1021.02 1020.57 1020.03 1019.44 1018.94 1018.31 1017.68 1017.01 1016.10 1015.14 1014.09 1012.93 1011.86 1010.92 1010.18 1009.82 1009.24 1008.90 1008.63
1019.18 1020.35 1021.06 1021.46 1021.09 1019.40 1017.54 1017.92 1018.29 1018.38 1018.53 1018.59 1018.97 1019.36 1019.87 1020.37 1020.65 1020.83 1021.12 1021.31 1021.39 1021.42 1021.44 1021.29 1021.28 1020.88 1020.32 1019.92 1019.41 1018.82 1018.19 1017.49 1016.83 1015.81 1014.98 1013.92 1012.65 1011.58 1010.86 1010.24 1009.69 1009.14 1008.62 1008.44
1018.14 1017.89 1018.49 1019.52 1018.38 1017.04 1016.62 1016.61 1016.81 1017.42 1018.10 1018.61 1018.95 1019.25 1019.71 1020.21 1020.48 1020.80 1021.11 1021.36 1021.48 1021.59 1021.53 1021.34 1021.25 1020.67 1020.22 1019.78 1019.32 1018.75 1018.11 1017.34 1016.71 1015.75 1014.78 1013.76 1012.59 1011.65 1010.97 1010.19 1009.60 1009.00 1008.52 1008.19
1016.80 1016.81 1017.45 1017.76 1016.87 1016.55 1016.48 1016.45 1016.64 1017.27 1017.92 1018.45 1018.85 1019.27 1019.57 1019.95 1020.35 1020.75 1021.14 1021.51 1021.62 1021.66 1021.53 1021.35 1021.06 1020.69 1020.18 1019.65 1019.22 1018.71 1018.05 1017.30 1016.58 1015.69 1014.77 1013.74 1012.68 1011.82 1011.00 1010.27 1009.64 1009.11 1008.81 1008.26
1016.53 1016.28 1016.64 1017.04 1016.51 1016.48 1016.33 1016.24 1016.48 1017.17 1017.83 1018.42 1018.84 1019.01 1019.27 1019.73 1020.26 1020.74 1021.26 1021.48 1021.60 1021.62 1021.54 1021.29 1021.04 1020.79 1020.15 1019.55 1019.08 1018.48 1017.89 1017.29 1016.53 1015.67 1014.83 1013.82 1012.88 1012.02 1011.25 1010.48 1009.85 1009.33 1008.96 1008.84
1016.01 1015.90 1016.37 1016.17 1015.87 1015.90 1016.04 1016.06 1016.26 1017.03 1017.75 1018.10 1018.43 1018.83 1019.22 1019.57 1020.27 1020.73 1021.20 1021.32 1021.45 1021.47 1021.42 1021.27 1020.91 1020.61 1019.96 1019.43 1018.91 1018.38 1017.85 1017.28 1016.61 1015.75 1014.93 1014.08 1013.08 1012.13 1011.44 1010.63 1009.85 1009.21 1008.98 1008.71
Wind_Speed
4 7 1 5 3 4 8 6 3 3 6 4 4 7 8 7 11 11 10 11 10 11 8 11 10 9 7 6 8 9 8 6 4 1 2 3 2 3 3 3 6 6 7 9
8 1 4 7 9 10 9 8 7 4 10 6 6 6 7 3 4 11 13 10 9 7 7 7 8 8 8 8 8 6 5 5 2 2 1 1 2 2 2 1 0 2 1 3
6 4 7 10 8 8 4 6 3 3 5 5 4 7 5 3 7 6 7 10 8 11 9 7 7 8 7 8 6 4 5 6 5 6 4 2 1 1 0 2 2 3 2 3
4 2 10 8 6 4 3 3 2 5 5 2 3 5 5 5 7 7 8 7 8 7 5 6 7 3 2 5 6 6 8 8 6 5 3 6 5 4 4 3 4 5 6 6
5 3 5 6 1 1 5 3 3 3 3 2 5 3 8 6 3 1 1 3 5 5 6 3 6 8 5 6 7 8 5 3 4 4 4 5 5 4 3 3 6 6 6 6
3 0 4 3 3 7 2 5 7 6 3 3 4 5 6 3 2 4 5 6 5 6 7 8 5 3 2 2 4 5 5 4 6 5 6 7 7 7 5 5 5 5 4 3
7 5 2 3 6 8 12 8 6 7 7 5 4 7 5 5 5 8 7 5 7 6 6 5 6 5 2 3 3 2 4 5 5 6 7 7 6 6 6 8 5 6 4 3
4 6 1 1 4 1 2 6 6 1 1 6 6 3 5 6 4 5 6 8 6 6 1 3 6 7 5 6 7 8 7 6 6 6 6 5 4 2 3 4 4 5 4 4
3 2 2 4 2 6 4 3 5 5 2 3 2 2 5 2 3 3 7 7 4 2 6 8 7 7 8 7 5 4 6 6 6 4 5 6 6 7 6 8 6 3 4 4
1 1 2 2 2 3 5 3 4 4 0 3 4 1 4 5 5 6 6 6 4 6 7 5 5 6 4 5 4 6 6 5 5 6 6 5 7 6 5 5 6 6 6 6
3 4 6 2 2 4 2 2 5 4 5 6 1 7 7 4 5 7 4 3 1 4 3 3 3 3 4 3 3 3 5 6 7 7 7 7 7 7 6 6 6 7 7 8
2 4 2 7 6 4 4 5 6 7 4 1 5 8 5 8 6 7 4 3 5 5 0 2 3 3 3 2 4 5 5 6 6 6 8 10 7 7 7 7 7 8 7 7
3 2 4 10 8 7 3 3 4 4 4 6 7 8 2 5 7 3 3 3 2 3 3 5 6 4 3 5 6 6 5 5 8 10 9 9 10 8 9 9 9 9 9 9
7 3 7 7 6 2 6 6 7 6 5 4 7 5 4 6 4 4 4 2 2 5 6 5 3 3 5 6 5 5 7 8 9 9 9 10 11 11 11 11 11 10 9 9
5 3 3 5 6 5 6 9 9 6 7 7 5 6 1 2 2 4 3 3 6 5 6 4 3 5 5 4 5 5 9 10 10 11 11 12 12 12 12 11 11 11 10 9
2 2 1 4 7 6 7 10 8 6 3 5 6 3 3 3 3 3 1 3 5 5 4 4 6 6 5 5 6 6 10 10 11 11 12 12 13 13 13 12 12 11 11 11
6 4 3 5 5 6 8 6 3 3 1 5 3 4 3 2 5 3 6 5 5 3 2 5 5 5 5 6 6 7 8 10 11 12 13 13 13 13 13 13 12 11 11 10
6 5 4 4 4 2 9 2 3 7 3 4 6 4 2 0 3 3 3 3 4 1 3 5 5 6 6 6 7 7 7 10 12 12 13 14 14 14 13 12 11 11 9 10
6 6 1 2 2 7 7 2 4 5 2 1 6 1 2 3 3 3 3 3 3 2 2 4 5 4 5 6 7 7 10 11 12 13 14 14 14 14 14 12 11 10 9 8
5 5 6 3 3 6 8 2 4 4 3 4 5 1 0 2 5 5 4 2 3 2 3 3 5 5 6 7 7 10 11 11 12 14 15 15 15 14 14 12 10 7 7 7
3 1 6 3 4 8 8 5 3 5 10 6 5 3 3 1 5 4 0 1 3 2 5 4 6 6 7 7 9 10 11 11 13 15 14 15 15 15 13 10 9 8 6 6
9 8 5 3 3 8 8 3 8 9 4 6 5 6 4 5 2 1 4 2 5 6 5 6 6 7 7 8 8 11 11 13 13 14 14 15 15 9 10 10 8 8 7 6
2 9 8 10 10 7 8 7 6 8 6 5 7 4 7 5 1 2 2 4 4 4 4 4 5 9 8 7 7 10 12 12 13 14 14 14 16 10 10 9 9 7 6 5
3 4 3 5 3 5 7 4 6 6 6 6 6 7 6 5 3 4 3 2 2 4 5 4 6 8 8 9 10 10 11 12 12 13 14 13 13 12 11 7 6 6 7 7
6 2 3 3 5 3 5 7 9 9 8 10 7 7 6 7 4 4 3 2 2 3 4 4 6 6 7 9 9 10 11 11 11 12 11 12 10 10 9 8 7 5 3 2
3 6 4 7 8 6 6 5 7 9 9 9 8 5 5 7 6 5 4 2 1 3 3 5 6 6 7 9 10 10 10 11 11 11 9 9 9 8 8 7 8 8 5 7
Wind_Direction
13 59 283 237 220 65 91 83 83 262 341 77 185 162 191 180 124 141 135 133 133 137 160 141 149 151 150 154 153 161 155 174 143 101 106 79 34 1 43 16 15 23 7 1
25 119 262 55 62 73 67 51 355 306 350 50 151 228 222 86 152 153 142 137 142 135 151 159 163 166 186 177 186 174 144 138 77 88 281 285 187 177 214 268 334 348 209 326
130 220 66 84 45 51 49 87 352 265 329 347 55 340 179 48 115 111 128 144 152 159 165 173 180 191 190 185 189 149 154 164 182 178 167 178 315 29 152 238 215 258 247 158
125 288 95 71 74 111 25 253 343 324 49 273 89 260 308 172 111 144 155 152 159 164 158 180 205 175 154 222 147 171 190 194 210 197 194 184 191 215 222 203 208 230 228 218
281 121 86 77 68 340 229 327 309 258 263 37 358 75 297 25 137 200 43 109 92 123 163 54 61 122 112 130 167 195 200 231 238 249 246 222 216 233 235 231 234 243 229 226
241 294 53 149 107 79 358 8 354 31 87 41 259 135 331 318 263 45 85 101 148 66 66 60 63 132 69 158 139 141 164 194 233 260 263 247 248 246 232 243 246 255 266 272
12 356 358 52 32 7 40 44 346 3 13 225 345 59 219 263 130 134 141 135 86 79 57 22 356 346 218 161 58 29 23 29 13 31 21 12 359 329 297 290 284 283 256 229
118 336 7 10 131 165 332 129 145 258 297 279 345 118 237 220 137 119 116 110 90 70 9 321 334 2 50 37 43 48 35 24 19 24 2 351 345 299 275 255 255 249 244 241
88 309 35 97 128 112 323 42 184 113 349 40 253 22 352 213 153 88 83 95 67 17 347 352 28 62 84 74 58 46 28 13 10 336 313 314 306 301 285 283 268 251 247 244
178 25 325 291 63 5 134 182 41 12 311 306 297 204 225 231 238 86 90 89 48 15 27 47 67 104 80 64 51 32 12 335 293 297 301 294 295 302 307 319 314 307 299 290
63 107 285 35 119 226 17 20 62 111 137 167 281 280 217 220 118 119 119 204 190 79 62 43 64 99 79 56 35 326 305 301 318 329 325 324 306 296 299 294 285 277 266 263
15 138 267 240 271 206 173 174 129 116 262 179 152 266 47 124 130 126 157 52 60 94 75 326 74 81 56 4 301 306 332 353 343 319 308 301 292 291 288 275 279 276 266 268
172 10 14 345 356 357 17 261 164 115 73 207 140 260 60 73 71 71 71 42 169 221 346 50 75 50 350 313 321 359 358 319 315 314 306 296 294 289 286 291 280 277 276 276
89 119 155 190 219 225 294 299 283 136 113 223 217 244 3 32 39 347 345 54 291 357 47 69 57 343 327 329 1 338 320 313 310 297 293 291 296 300 299 294 288 280 276 275
103 182 213 247 254 260 265 272 288 215 209 159 263 137 100 50 350 336 25 12 4 31 44 50 356 326 313 0 332 323 321 315 302 302 303 304 304 301 295 292 288 282 277 272
32 257 251 286 288 294 294 287 278 280 115 131 135 139 176 219 249 75 324 7 38 37 49 6 336 326 350 326 312 317 323 311 307 304 305 305 302 299 293 290 287 281 276 268
150 149 87 269 305 337 324 270 226 124 65 130 132 164 208 350 18 43 6 40 29 72 358 323 323 321 302 312 303 299 305 306 312 310 309 309 306 301 296 289 284 280 275 270
141 123 130 246 6 334 244 249 138 130 128 117 101 117 122 292 320 77 39 80 91 259 326 346 307 291 295 301 298 292 302 317 318 313 312 310 306 300 296 289 281 275 271 264
149 125 115 135 197 283 295 218 170 156 289 69 120 79 33 3 61 5 10 68 150 14 320 274 291 291 294 306 296 297 322 321 318 317 314 310 306 302 299 291 285 276 271 266
77 95 125 137 173 234 239 267 114 94 297 165 126 142 70 84 23 267 314 100 32 284 294 325 324 303 320 301 305 329 323 321 320 317 311 309 307 301 296 298 294 286 274 272
107 39 177 151 227 283 242 155 114 86 239 193 173 153 139 129 194 228 18 106 314 340 10 358 334 325 293 309 328 325 323 321 318 313 312 313 310 307 308 313 319 301 287 276
165 154 200 130 196 275 167 128 159 210 198 181 153 161 132 135 136 19 124 3 20 18 358 340 344 318 332 332 329 325 325 322 320 315 319 317 315 321 327 322 319 315 303 282
148 181 183 169 210 227 194 186 195 161 162 166 148 127 131 131 146 93 169 38 29 18 327 334 328 326 335 328 332 324 324 322 322 319 321 320 319 329 327 327 325 327 324 304
305 159 168 68 271 207 206 230 152 152 140 154 127 137 136 142 118 136 55 83 23 336 335 326 330 331 326 338 337 328 323 323 323 321 323 321 325 332 331 329 325 336 350 341
215 47 152 246 263 118 322 199 154 140 129 124 141 150 153 123 118 126 131 128 345 326 316 326 322 311 314 332 332 329 327 328 325 322 323 325 328 328 327 329 326 335 348 309
176 202 157 229 221 178 218 190 151 137 146 152 144 137 99 120 137 130 151 166 288 324 317 330 318 310 322 331 332 336 334 332 326 324 327 327 326 326 328 325 326 331 311 360